Grinnell, IA

2:15 PM CST on January 22, 2018 (GMT -0600)
Grinnell Regional

Weather History for KGGI - February, 2014

Change the Weather History Date:

Monday, February 17, 2014

  Actual Average (KTNU) Record (KTNU)
Temperature  
Mean Temperature 30 °F -  
Max Temperature 39 °F 36 °F 71 °F (2017)
Min Temperature 21 °F 17 °F -9 °F (1979)
Degree Days  
Heating Degree Days 35    
Moisture  
Dew Point 24 °F    
Average Humidity 81    
Maximum Humidity 95    
Minimum Humidity 67    
Precipitation  
Precipitation 0.08 in - - ()
Sea Level Pressure  
Sea Level Pressure 29.85 in    
Wind  
Wind Speed 14 mph (SSW)    
Max Wind Speed 22 mph    
Max Gust Speed 30 mph    
Visibility 7 miles    
Events Snow    
Averages and records for this station are not official NWS values.
T = Trace of Precipitation, MM = Missing Value Source: NWS Daily Summary

Daily Weather History Graph

Daily Weather History Graph

Search for Another Location

Airport or City:

Trip Planner

Search our weather history database for the weather conditions in past years. The results will help you decide how hot, cold, wet, or windy it might be!

Date:

Astronomy

Feb. 17, 2014 Rise Set
Actual Time 7:03 AM CST 5:46 PM CST
Civil Twilight 6:35 AM CST 6:15 PM CST
Nautical Twilight 6:02 AM CST 6:47 PM CST
Astronomical Twilight 5:30 AM CST 7:19 PM CST
Moon 8:45 PM CST (2/17) 8:01 AM CST (2/17)
Length of Visible Light 11h 40m
Length of Day
10h 43m
Waning Gibbous, 93% of the Moon is Illuminated
Feb 17
Waning Gibbous
Feb 22
Last Quarter
Mar 1
New
Mar 8
First Quarter
Mar 16
Full

Hourly Weather History & Observations

Time (CST) Temp. Windchill Dew Point Humidity Pressure Visibility Wind Dir Wind Speed Gust Speed Precip Events Conditions
12:15 AM 22.1 °F 9.5 °F 16.7 °F 80% 30.04 in 10.0 mi ESE 13.8 mph - N/A   Mostly Cloudy
12:35 AM 22.1 °F 8.9 °F 16.7 °F 80% 30.03 in 10.0 mi ESE 15.0 mph 19.6 mph N/A   Overcast
12:55 AM 22.1 °F 8.9 °F 17.1 °F 81% 30.01 in 10.0 mi East 15.0 mph 23.0 mph N/A   Overcast
1:15 AM 21.9 °F 8.2 °F 16.9 °F 81% 29.99 in 10.0 mi ESE 16.1 mph 23.0 mph N/A   Mostly Cloudy
1:35 AM 22.1 °F 8.0 °F 17.1 °F 81% 29.97 in 10.0 mi ESE 17.3 mph 23.0 mph N/A   Mostly Cloudy
1:55 AM 22.1 °F 7.2 °F 16.9 °F 80% 29.96 in 10.0 mi ESE 19.6 mph - N/A   Overcast
2:15 AM 21.9 °F 6.9 °F 16.9 °F 81% 29.95 in 10.0 mi ESE 19.6 mph 25.3 mph N/A   Overcast
2:35 AM 22.1 °F 9.5 °F 17.2 °F 82% 29.94 in 10.0 mi ESE 13.8 mph 20.7 mph N/A   Overcast
2:55 AM 21.6 °F 8.2 °F 17.2 °F 83% 29.93 in 10.0 mi East 15.0 mph 21.9 mph N/A   Overcast
3:15 AM 21.6 °F 7.3 °F 17.2 °F 83% 29.92 in 10.0 mi East 17.3 mph - N/A   Overcast
3:35 AM 21.2 °F 7.8 °F 16.7 °F 83% 29.92 in 10.0 mi ESE 15.0 mph - N/A   Overcast
3:55 AM 21.4 °F 8.0 °F 17.6 °F 85% 29.91 in 7.0 mi ESE 15.0 mph - N/A Snow Light Snow
4:15 AM 22.1 °F 8.0 °F 18.9 °F 87% 29.90 in 5.0 mi ESE 17.3 mph 23.0 mph N/A   Overcast
4:35 AM 21.9 °F 8.7 °F 18.5 °F 87% 29.88 in 5.0 mi ESE 15.0 mph 23.0 mph N/A   Overcast
4:55 AM 21.6 °F 5.7 °F 18.7 °F 89% 29.86 in 5.0 mi ESE 21.9 mph 27.6 mph N/A   Overcast
5:15 AM 21.9 °F 6.9 °F 19.4 °F 90% 29.85 in 4.0 mi ESE 19.6 mph 27.6 mph N/A Snow Light Snow
5:35 AM 22.1 °F 7.2 °F 19.8 °F 91% 29.84 in 4.0 mi ESE 19.6 mph 29.9 mph N/A Snow Light Snow
5:55 AM 22.1 °F 7.2 °F 19.8 °F 91% 29.83 in 4.0 mi ESE 19.6 mph 24.2 mph N/A Snow Light Snow
6:15 AM 21.9 °F 6.9 °F 19.4 °F 90% 29.82 in 5.0 mi ESE 19.6 mph 23.0 mph N/A Snow Light Snow
6:35 AM 21.7 °F 7.5 °F 19.2 °F 90% 29.81 in 7.0 mi ESE 17.3 mph 23.0 mph N/A Snow Light Snow
6:55 AM 21.4 °F 8.5 °F 19.0 °F 91% 29.83 in 4.0 mi SE 13.8 mph 20.7 mph N/A Snow Light Snow
7:15 AM 21.6 °F 9.9 °F 19.4 °F 91% 29.84 in 4.0 mi SE 11.5 mph - N/A Snow Light Snow
7:35 AM 21.7 °F 11.5 °F 19.8 °F 92% 29.83 in 1.2 mi SE 9.2 mph - 0.01 in Snow Light Snow
7:55 AM 22.1 °F 12.0 °F 20.3 °F 93% 29.82 in 2.5 mi SE 9.2 mph - 0.01 in Snow Light Snow
8:15 AM 22.3 °F 12.2 °F 20.5 °F 93% 29.83 in 2.5 mi SSE 9.2 mph - N/A Snow Light Snow
8:35 AM 22.6 °F 13.4 °F 21.0 °F 93% 29.83 in 0.5 mi SSE 8.1 mph - 0.01 in Snow Snow
8:55 AM 22.6 °F 14.3 °F 21.2 °F 94% 29.82 in 0.2 mi SSE 6.9 mph - 0.02 in Snow Snow
9:15 AM 22.8 °F 16.7 °F 21.6 °F 95% 29.82 in 0.2 mi South 4.6 mph - 0.01 in Snow Snow
9:35 AM 23.5 °F 17.6 °F 22.1 °F 94% 29.81 in 0.2 mi SSE 4.6 mph - 0.03 in Snow Heavy Snow
9:55 AM 24.1 °F 17.0 °F 22.6 °F 94% 29.81 in 0.5 mi SSE 5.8 mph - 0.05 in Snow Snow
10:15 AM 25.7 °F 15.7 °F 23.7 °F 92% 29.80 in 2.5 mi South 10.4 mph - N/A Snow Light Snow
10:35 AM 26.1 °F 15.6 °F 23.7 °F 91% 29.79 in 2.5 mi South 11.5 mph - N/A Snow Light Snow
10:55 AM 26.2 °F 17.1 °F 23.9 °F 91% 29.79 in 3.0 mi South 9.2 mph - N/A Snow Light Snow
11:15 AM 26.6 °F 16.8 °F 24.4 °F 92% 29.79 in 3.0 mi SSW 10.4 mph - N/A   Overcast
11:35 AM 27.3 °F 16.1 °F 25.2 °F 92% 29.80 in 3.0 mi SW 13.8 mph - N/A   Overcast
11:55 AM 28.2 °F 18.3 °F 25.7 °F 90% 29.78 in 3.0 mi SW 11.5 mph - N/A   Overcast
12:15 PM 29.3 °F 20.2 °F 26.4 °F 89% 29.77 in 3.0 mi SW 10.4 mph - N/A   Overcast
12:35 PM 31.6 °F 20.7 °F 28.2 °F 87% 29.76 in 4.0 mi West 16.1 mph - N/A   Scattered Clouds
12:55 PM 33.3 °F 23.2 °F 29.3 °F 85% 29.75 in 5.0 mi WSW 15.0 mph 21.9 mph N/A   Clear
1:15 PM 34.7 °F 24.0 °F 30.2 °F 84% 29.75 in 7.0 mi West 18.4 mph 23.0 mph N/A   Clear
1:35 PM 36.5 °F 27.0 °F 31.3 °F 81% 29.75 in 10.0 mi West 16.1 mph 25.3 mph N/A   Clear
1:55 PM 37.9 °F 28.2 °F 31.8 °F 79% 29.75 in 10.0 mi West 18.4 mph 24.2 mph N/A   Scattered Clouds
2:15 PM 38.7 °F 28.8 °F 31.6 °F 76% 29.74 in 10.0 mi West 19.6 mph 29.9 mph N/A   Scattered Clouds
2:35 PM 39.2 °F 29.3 °F 30.9 °F 72% 29.75 in 10.0 mi West 20.7 mph 26.5 mph N/A   Clear
2:55 PM 39.2 °F 29.0 °F 30.6 °F 71% 29.75 in 10.0 mi West 21.9 mph 27.6 mph N/A   Clear
3:15 PM 39.4 °F 29.2 °F 30.2 °F 70% 29.76 in 10.0 mi West 21.9 mph 26.5 mph N/A   Clear
3:35 PM 39.4 °F 29.2 °F 29.7 °F 68% 29.77 in 10.0 mi West 21.9 mph 28.8 mph N/A   Clear
3:55 PM 39.4 °F 30.1 °F 29.5 °F 68% 29.78 in 10.0 mi West 18.4 mph - N/A   Clear
4:15 PM 39.2 °F 30.8 °F 29.3 °F 68% 29.79 in 10.0 mi West 15.0 mph - N/A   Clear
4:35 PM 39.2 °F 30.8 °F 29.1 °F 67% 29.80 in 10.0 mi West 15.0 mph - N/A   Clear
4:55 PM 39.2 °F 30.2 °F 29.1 °F 67% 29.81 in 10.0 mi West 17.3 mph 21.9 mph N/A   Clear
5:15 PM 39.2 °F 30.2 °F 28.9 °F 67% 29.82 in 10.0 mi West 17.3 mph - N/A   Clear
5:35 PM 38.8 °F 30.0 °F 28.9 °F 68% 29.83 in 10.0 mi West 16.1 mph 23.0 mph N/A   Clear
5:55 PM 38.7 °F 29.5 °F 28.6 °F 67% 29.83 in 10.0 mi West 17.3 mph 21.9 mph N/A   Clear
6:15 PM 38.3 °F 30.1 °F 28.6 °F 68% 29.85 in 10.0 mi West 13.8 mph - N/A   Clear
6:35 PM 37.9 °F 28.9 °F 28.4 °F 69% 29.85 in 10.0 mi West 16.1 mph - N/A   Clear
6:55 PM 37.6 °F 28.8 °F 28.4 °F 69% 29.86 in 10.0 mi West 15.0 mph - N/A   Clear
7:15 PM 37.0 °F 29.3 °F 28.4 °F 71% 29.86 in 10.0 mi West 11.5 mph - N/A   Clear
7:35 PM 36.9 °F 28.7 °F 28.4 °F 71% 29.87 in 10.0 mi West 12.7 mph - N/A   Clear
7:55 PM 37.4 °F 28.9 °F 28.4 °F 70% 29.87 in 10.0 mi West 13.8 mph - N/A   Clear
8:15 PM 37.6 °F 29.1 °F 28.0 °F 68% 29.87 in 10.0 mi West 13.8 mph - N/A   Clear
8:35 PM 37.8 °F 29.0 °F 27.9 °F 67% 29.88 in 10.0 mi West 15.0 mph - N/A   Clear
8:55 PM 37.8 °F 29.8 °F 27.5 °F 67% 29.89 in 10.0 mi West 12.7 mph - N/A   Clear
9:15 PM 36.5 °F 29.2 °F 27.3 °F 69% 29.89 in 10.0 mi West 10.4 mph - N/A   Clear
9:35 PM 35.1 °F 27.9 °F 26.6 °F 71% 29.89 in 10.0 mi West 9.2 mph - N/A   Clear
9:55 PM 34.2 °F 27.5 °F 26.2 °F 73% 29.90 in 10.0 mi West 8.1 mph - N/A   Clear
10:15 PM 32.7 °F 29.6 °F 25.2 °F 74% 29.89 in 10.0 mi WSW 3.5 mph - N/A   Clear
10:35 PM 32.0 °F - 25.2 °F 76% 29.89 in 10.0 mi Calm Calm - N/A   Clear
10:55 PM 30.7 °F 23.3 °F 24.4 °F 77% 29.89 in 10.0 mi SW 8.1 mph - N/A   Clear
11:15 PM 29.5 °F 21.1 °F 23.4 °F 78% 29.89 in 10.0 mi SW 9.2 mph - N/A   Clear
11:35 PM 28.2 °F 21.0 °F 22.1 °F 78% 29.88 in 10.0 mi SW 6.9 mph - N/A   Clear
11:55 PM 30.0 °F 22.4 °F 23.2 °F 76% 29.88 in 10.0 mi SSW 8.1 mph - N/A   Clear